This is the latest recevied weather packets stored in our database for station/object KC5DAQ-22. If no packets are shown the sender has not sent any weather packets the latest 1 day(s).
| Time | Temp. | Humidity | Pressure | Rain* | Wind** | Luminosity | Snow |
|---|---|---|---|---|---|---|---|
| 1778051261 | 25° C | 91% | 1007.4 hPa | 0 mm | 1.79 m/s, 204° | 0 W/m² | - |
| 1778051200 | 25° C | 91% | 1007.4 hPa | 0 mm | 2.68 m/s, 171° | 0 W/m² | - |
| 1778051137 | 25° C | 91% | 1007.4 hPa | 0 mm | 2.24 m/s, 141° | 0 W/m² | - |
| 1778051077 | 25° C | 91% | 1007.4 hPa | 0 mm | 1.79 m/s, 142° | 0 W/m² | - |
| 1778051015 | 25° C | 91% | 1007.4 hPa | 0 mm | 1.79 m/s, 137° | 0 W/m² | - |
| 1778050953 | 25° C | 91% | 1007.5 hPa | 0 mm | 2.68 m/s, 165° | 0 W/m² | - |
| 1778050894 | 25° C | 91% | 1007.4 hPa | 0 mm | 2.68 m/s, 142° | 0 W/m² | - |
| 1778050834 | 25° C | 91% | 1007.4 hPa | 0 mm | 1.79 m/s, 173° | 0 W/m² | - |
| 1778050772 | 25° C | 91% | 1007.4 hPa | 0 mm | 1.79 m/s, 190° | 0 W/m² | - |
| 1778050711 | 25° C | 91% | 1007.4 hPa | 0 mm | 1.34 m/s, 221° | 0 W/m² | - |
| 1778050648 | 25° C | 91% | 1007.5 hPa | 0 mm | 2.24 m/s, 176° | 0 W/m² | - |
| 1778050589 | 25° C | 91% | 1007.4 hPa | 0 mm | 3.13 m/s, 188° | 0 W/m² | - |
| 1778050527 | 25° C | 91% | 1007.4 hPa | 0 mm | 3.13 m/s, 144° | 0 W/m² | - |
| 1778050466 | 25° C | 91% | 1007.4 hPa | 0 mm | 2.68 m/s, 147° | 0 W/m² | - |
| 1778050406 | 25° C | 91% | 1007.4 hPa | 0 mm | 1.79 m/s, 137° | 0 W/m² | - |
| 1778050346 | 25° C | 91% | 1007.3 hPa | 0 mm | 2.24 m/s, 161° | 0 W/m² | - |
| 1778050287 | 25° C | 91% | 1007.4 hPa | 0 mm | 2.24 m/s, 154° | 0 W/m² | - |
| 1778050226 | 25° C | 91% | 1007.4 hPa | 0 mm | 2.24 m/s, 162° | 0 W/m² | - |
| 1778050167 | 25° C | 91% | 1007.4 hPa | 0 mm | 2.24 m/s, 154° | 0 W/m² | - |
| 1778050106 | 25° C | 91% | 1007.4 hPa | 0 mm | 1.79 m/s, 204° | 0 W/m² | - |
| 1778050046 | 25° C | 91% | 1007.4 hPa | 0 mm | 1.34 m/s, 231° | 0 W/m² | - |
| 1778049987 | 25° C | 91% | 1007.4 hPa | 0 mm | 1.79 m/s, 133° | 0 W/m² | - |
| 1778049928 | 25° C | 91% | 1007.4 hPa | 0 mm | 2.24 m/s, 78° | 0 W/m² | - |
| 1778049866 | 25° C | 91% | 1007.4 hPa | 0 mm | 2.68 m/s, 173° | 0 W/m² | - |
| 1778049806 | 25° C | 91% | 1007.4 hPa | 0 mm | 2.68 m/s, 158° | 0 W/m² | - |
* Rain latest hour (hover to see other rain measurements)
** Current wind speed in m/s (hover to see current wind gust speed)